{"data":{"norad_id":66515,"epoch":"2026-09-19T18:57:53.446752Z","epoch_age_seconds":75700,"freshness":"FRESH","line1":"1 66515U 25246C   26262.79020193  .00068397  00000+0  26788-3 0  9997","line2":"2 66515  41.4702  74.2737 0011479 331.5770  28.4450 15.85904869 48719","mean_motion":15.85904869,"eccentricity":0.0011479,"inclination_deg":41.4702,"raan_deg":74.2737,"arg_perigee_deg":331.577,"mean_anomaly_deg":28.445,"bstar":0.00026788,"rev_number":4871,"period_min":90.799897783781,"perigee_km":306.09640790343,"apogee_km":321.45970649175,"semimajor_km":6691.9150571976,"source":"CELESTRAK","updated_at":"2026-09-20T09:00:28.694402Z"}}